FW0837 Weather Reports


Display with metric or nautical units.
time (UTC)temp
F
wind
direction
speed
MPH
gust
MPH
rain 1hr
in
rain 24hr
in
rain mn
in
humidity
%
barometer
mb
20260506144048 69 208 3.0 8.0 0.00 0.00 0.00 68 1008.7
20260506143549 69 133 2.0 10.0 0.00 0.00 0.00 69 1008.7
20260506143048 69 167 4.0 10.0 0.00 0.00 0.00 67 1008.8
20260506142547 70 154 2.0 12.0 0.00 0.00 0.00 68 1008.7
20260506142045 69 255 2.0 18.0 0.00 0.00 0.00 69 1008.5
20260506141545 69 172 5.0 18.0 0.00 0.00 0.00 70 1008.4
20260506141044 68 163 4.0 15.0 0.00 0.00 0.00 71 1008.6
20260506140548 68 166 2.0 13.0 0.00 0.00 0.00 72 1008.6
20260506140042 67 153 6.0 13.0 0.00 0.00 0.00 72 1008.7
20260506135540 67 210 4.0 12.0 0.00 0.00 0.00 73 1008.7
20260506135039 66 151 4.0 9.0 0.00 0.00 0.00 73 1008.9
20260506134538 66 134 2.0 11.0 0.00 0.00 0.00 74 1008.9
20260506134041 66 248 2.0 10.0 0.00 0.00 0.00 74 1009.0
20260506133537 66 179 3.0 14.0 0.00 0.00 0.00 74 1009.1
20260506133035 65 194 5.0 15.0 0.00 0.00 0.00 75 1009.1
20260506132538 65 231 4.0 15.0 0.00 0.00 0.00 75 1009.2
20260506132034 65 270 4.0 9.0 0.00 0.00 0.00 75 1009.3
20260506131539 65 223 4.0 15.0 0.00 0.00 0.00 75 1009.3
20260506131033 65 171 5.0 16.0 0.00 0.00 0.00 75 1009.2
20260506130532 65 218 3.0 16.0 0.00 0.00 0.00 75 1009.2
20260506130034 65 256 5.0 16.0 0.00 0.00 0.00 75 1009.3
20260506125532 65 153 5.0 12.0 0.00 0.00 0.00 75 1009.3
20260506125034 65 235 3.0 9.0 0.00 0.00 0.00 76 1009.2
20260506124531 64 253 4.0 10.0 0.00 0.00 0.00 76 1009.2
20260506124035 64 93 3.0 10.0 0.00 0.00 0.00 76 1009.0
20260506123531 64 139 3.0 8.0 0.00 0.00 0.00 77 1009.1
20260506123031 64 154 2.0 14.0 0.00 0.00 0.00 77 1009.1
20260506122531 64 212 4.0 11.0 0.00 0.00 0.00 77 1009.3
20260506122031 64 200 5.0 15.0 0.00 0.00 0.00 76 1009.4
20260506121530 64 181 6.0 14.0 0.00 0.00 0.00 76 1009.4
20260506121030 64 241 4.0 11.0 0.00 0.00 0.00 77 1009.4
20260506120532 63 268 4.0 11.0 0.00 0.00 0.00 79 1009.4
20260506120028 62 162 4.0 9.0 0.00 0.00 0.00 78 1009.4
20260506115531 62 224 2.0 9.0 0.00 0.00 0.00 78 1009.6
20260506115028 62 199 3.0 8.0 0.00 0.00 0.00 79 1009.6
20260506114529 62 200 3.0 11.0 0.00 0.00 0.00 79 1009.6
20260506114027 62 177 4.0 13.0 0.00 0.00 0.00 79 1009.7
20260506113528 62 193 4.0 13.0 0.00 0.00 0.00 79 1009.7
20260506113036 62 222 3.0 11.0 0.00 0.00 0.00 79 1009.7
20260506112527 62 178 3.0 11.0 0.00 0.00 0.00 79 1009.8
20260506112026 62 212 4.0 15.0 0.00 0.00 0.00 79 1009.9
20260506111528 61 238 5.0 14.0 0.00 0.00 0.00 79 1009.7
20260506111027 61 189 3.0 8.0 0.00 0.00 0.00 80 1009.6
20260506110526 61 114 1.0 8.0 0.00 0.00 0.00 81 1009.6
20260506110026 60 110 3.0 8.0 0.00 0.00 0.00 81 1009.7
20260506105525 60 228 2.0 7.0 0.00 0.00 0.00 81 1010.0
20260506105023 60 188 1.0 7.0 0.00 0.00 0.00 80 1010.0
20260506104525 60 177 2.0 10.0 0.00 0.00 0.00 80 1010.0
20260506104022 60 359 2.0 10.0 0.00 0.00 0.00 80 1009.8
20260506103525 60 208 3.0 8.0 0.00 0.00 0.00 80 1009.7
20260506103025 60 243 3.0 9.0 0.00 0.00 0.00 80 1009.7
20260506102521 60 233 2.0 9.0 0.00 0.00 0.00 80 1009.6
20260506102020 60 177 1.0 8.0 0.00 0.00 0.00 80 1009.7
20260506101519 60 231 4.0 9.0 0.00 0.00 0.00 80 1009.7
20260506101017 60 176 2.0 8.0 0.00 0.00 0.00 80 1009.7
20260506100517 60 136 1.0 6.0 0.00 0.00 0.00 80 1009.7
20260506100017 60 215 1.0 8.0 0.00 0.00 0.00 80 1009.8
20260506095516 60 172 3.0 8.0 0.00 0.00 0.00 80 1009.8
20260506095018 60 33 2.0 11.0 0.00 0.00 0.00 80 1009.7
20260506094515 60 180 3.0 10.0 0.00 0.00 0.00 80 1009.5
20260506094014 60 170 1.0 9.0 0.00 0.00 0.00 80 1009.5
20260506093514 60 291 2.0 9.0 0.00 0.00 0.00 79 1009.7
20260506093013 60 245 2.0 9.0 0.00 0.00 0.00 79 1009.7
20260506092513 60 179 2.0 7.0 0.00 0.00 0.00 79 1009.7
20260506092012 60 154 2.0 9.0 0.00 0.00 0.00 79 1009.7
20260506091512 60 187 3.0 8.0 0.00 0.00 0.00 79 1009.7
20260506091010 60 177 3.0 11.0 0.00 0.00 0.00 78 1009.5
20260506090511 60 181 5.0 11.0 0.00 0.00 0.00 78 1009.7
20260506090013 60 183 1.0 5.0 0.00 0.00 0.00 78 1009.7
20260506085509 61 126 0.0 8.0 0.00 0.00 0.00 78 1009.7
20260506085008 61 132 1.0 8.0 0.00 0.00 0.00 77 1009.6
20260506084508 61 118 2.0 7.0 0.00 0.00 0.00 77 1009.8
20260506084012 61 175 1.0 9.0 0.00 0.00 0.00 77 1009.7
20260506083507 61 181 3.0 9.0 0.00 0.00 0.00 76 1009.7
20260506083006 61 189 2.0 10.0 0.00 0.00 0.00 76 1009.7
20260506082505 61 228 4.0 10.0 0.00 0.00 0.00 76 1009.6
20260506082008 61 168 2.0 7.0 0.00 0.00 0.00 76 1009.7
20260506081503 61 170 0.0 8.0 0.00 0.00 0.00 75 1009.7
20260506081003 62 195 3.0 11.0 0.00 0.00 0.00 75 1009.6
20260506080504 62 211 4.0 11.0 0.00 0.00 0.00 75 1009.5
20260506073059 62 184 2.0 8.0 0.00 0.00 0.00 73 1009.3
20260506072558 62 181 4.0 9.0 0.00 0.00 0.00 73 1009.2
20260506072058 62 149 1.0 10.0 0.00 0.00 0.00 72 1009.2
20260506071605 62 172 3.0 10.0 0.00 0.00 0.00 72 1009.2
20260506071057 63 152 3.0 12.0 0.00 0.00 0.00 72 1009.3
20260506070557 63 237 4.0 12.0 0.00 0.00 0.00 72 1009.1
20260506062052 63 208 5.0 15.0 0.00 0.00 0.00 70 1009.0
20260506061551 63 168 3.0 11.0 0.00 0.00 0.00 69 1009.0
20260506061051 63 203 3.0 12.0 0.00 0.00 0.00 69 1009.1
20260506060550 63 218 3.0 12.0 0.00 0.00 0.00 69 1009.0
20260506051045 63 175 2.0 9.0 0.00 0.00 0.00 69 1009.3
20260506050545 63 259 4.0 9.0 0.00 0.00 0.00 69 1009.3
20260506045042 63 224 2.0 12.0 0.00 0.00 0.00 68 1009.6
20260506044542 63 184 3.0 11.0 0.00 0.00 0.00 68 1009.6
20260506044042 63 221 2.0 10.0 0.00 0.00 0.00 68 1009.6
20260506043541 63 208 4.0 10.0 0.00 0.00 0.00 68 1009.5
20260506043041 63 205 0.0 7.0 0.00 0.00 0.00 67 1009.4
20260506042541 63 212 1.0 10.0 0.00 0.00 0.00 67 1009.5
20260506042039 63 198 2.0 14.0 0.00 0.00 0.00 67 1009.5
20260506041538 63 201 2.0 14.0 0.00 0.00 0.00 67 1009.6
20260506041037 63 226 3.0 11.0 0.00 0.00 0.00 66 1009.6
20260506040538 64 120 3.0 9.0 0.00 0.00 0.00 66 1009.6
20260506040037 64 241 1.0 9.0 0.00 0.00 0.00 66 1009.6
20260506035537 64 239 3.0 9.0 0.00 0.00 0.00 65 1009.6
20260506035039 64 206 1.0 12.0 0.00 0.00 0.00 65 1009.6
20260506034547 64 230 2.0 11.0 0.00 0.00 0.00 64 1009.4
20260506034037 65 241 3.0 13.0 0.00 0.00 0.00 64 1009.5
20260506033536 65 181 5.0 13.0 0.00 0.00 0.00 63 1009.4
20260506033036 65 205 3.0 11.0 0.00 0.00 0.00 63 1009.4
20260506032539 65 218 3.0 9.0 0.00 0.00 0.00 63 1009.4
20260506032036 65 171 4.0 8.0 0.00 0.00 0.00 63 1009.4
20260506031536 65 181 4.0 9.0 0.00 0.00 0.00 63 1009.4
20260506031035 65 129 3.0 12.0 0.00 0.00 0.00 63 1009.5
20260506030534 65 178 3.0 12.0 0.00 0.00 0.00 63 1009.4
20260506030041 66 156 2.0 10.0 0.00 0.00 0.00 62 1009.4
20260506025535 66 196 2.0 10.0 0.00 0.00 0.00 62 1009.3
20260506025035 66 191 2.0 16.0 0.00 0.00 0.00 62 1009.3
20260506024555 66 241 5.0 16.0 0.00 0.00 0.00 62 1009.3
20260506024035 66 200 3.0 9.0 0.00 0.00 0.00 62 1009.2
20260506023535 66 145 1.0 9.0 0.00 0.00 0.00 61 1009.3
20260506023035 67 168 5.0 9.0 0.00 0.00 0.00 61 1009.3
20260506022536 67 199 1.0 10.0 0.00 0.00 0.00 60 1009.3
20260506022034 67 160 2.0 10.0 0.00 0.00 0.00 60 1009.3
20260506021534 68 174 3.0 10.0 0.00 0.00 0.00 59 1009.4
20260506021035 68 163 2.0 10.0 0.00 0.00 0.00 59 1009.4
20260506020533 68 168 2.0 8.0 0.00 0.00 0.00 58 1009.3
20260506020034 69 144 1.0 8.0 0.00 0.00 0.00 58 1009.3
20260506015534 69 149 3.0 7.0 0.00 0.00 0.00 57 1009.4
20260506015034 69 174 2.0 7.0 0.00 0.00 0.00 56 1009.4
20260506014534 69 181 0.0 9.0 0.00 0.00 0.00 56 1009.3
20260506014035 69 235 3.0 14.0 0.00 0.00 0.00 56 1009.4
20260506013533 70 222 6.0 14.0 0.00 0.00 0.00 55 1009.2
20260506013041 70 243 3.0 11.0 0.00 0.00 0.00 55 1009.1
20260506012534 70 173 3.0 15.0 0.00 0.00 0.00 54 1009.2
20260506012032 70 202 5.0 15.0 0.00 0.00 0.00 54 1009.2
20260506011531 71 218 3.0 12.0 0.00 0.00 0.00 54 1009.2
20260506011032 71 231 6.0 15.0 0.00 0.00 0.00 53 1009.2
20260506010532 71 239 6.0 17.0 0.00 0.00 0.00 52 1009.0
20260506010032 71 224 7.0 17.0 0.00 0.00 0.00 52 1008.7
20260506005531 71 193 4.0 16.0 0.00 0.00 0.00 52 1008.4
20260506005031 71 165 7.0 16.0 0.00 0.00 0.00 51 1008.3
20260506004533 72 216 6.0 13.0 0.00 0.00 0.00 50 1008.2
20260506004031 72 268 3.0 12.0 0.00 0.00 0.00 50 1008.0
20260506003531 72 189 5.0 12.0 0.00 0.00 0.00 49 1007.8
20260506003035 72 226 5.0 16.0 0.00 0.00 0.00 49 1007.7
20260506002530 72 230 7.0 16.0 0.00 0.00 0.00 49 1007.7
20260506002030 72 255 7.0 20.0 0.00 0.00 0.00 49 1007.6
20260506001536 73 181 6.0 20.0 0.00 0.00 0.00 49 1007.5
20260506001030 73 222 5.0 14.0 0.00 0.00 0.00 49 1007.3
20260506000531 73 188 6.0 17.0 0.00 0.00 0.00 48 1007.3
20260506000032 73 208 6.0 22.0 0.00 0.00 0.00 48 1007.2
20260505235530 73 174 6.0 18.0 0.00 0.00 0.00 47 1007.2
20260505235030 73 246 8.0 24.0 0.00 0.00 0.00 47 1007.2
20260505234535 74 197 5.0 24.0 0.00 0.00 0.00 47 1007.0
20260505234030 74 183 10.0 20.0 0.00 0.00 0.00 47 1007.0
20260505233531 74 177 7.0 19.0 0.00 0.00 0.00 47 1006.9
20260505233029 74 212 7.0 16.0 0.00 0.00 0.00 46 1006.7
20260505232528 75 191 6.0 19.0 0.00 0.00 0.00 46 1006.7
20260505232028 75 157 9.0 18.0 0.00 0.00 0.00 46 1006.7
20260505231528 75 184 5.0 15.0 0.00 0.00 0.00 46 1006.6
20260505231030 75 185 5.0 18.0 0.00 0.00 0.00 46 1006.4
20260505230527 76 216 3.0 18.0 0.00 0.00 0.00 46 1006.4
20260505230047 76 220 3.0 20.0 0.00 0.00 0.00 45 1006.4
20260505225527 77 227 11.0 20.0 0.00 0.00 0.00 44 1006.3
20260505225027 77 247 8.0 16.0 0.00 0.00 0.00 44 1006.2
20260505224527 77 259 6.0 21.0 0.00 0.00 0.00 43 1006.1
20260505224026 77 160 5.0 21.0 0.00 0.00 0.00 44 1006.2
20260505223526 78 231 6.0 19.0 0.00 0.00 0.00 43 1005.9
20260505223029 78 243 6.0 17.0 0.00 0.00 0.00 43 1005.8
20260505222526 78 210 9.0 19.0 0.00 0.00 0.00 42 1005.7
20260505222026 78 184 8.0 20.0 0.00 0.00 0.00 42 1005.7
20260505221528 79 249 8.0 20.0 0.00 0.00 0.00 41 1005.4
20260505221026 79 230 6.0 14.0 0.00 0.00 0.00 40 1005.4
20260505220525 79 152 7.0 23.0 0.00 0.00 0.00 41 1005.3
20260505220025 80 166 5.0 20.0 0.00 0.00 0.00 40 1005.4
20260505215527 80 205 9.0 20.0 0.00 0.00 0.00 39 1005.3
20260505215025 80 237 8.0 20.0 0.00 0.00 0.00 39 1005.2
20260505214525 80 241 7.0 21.0 0.00 0.00 0.00 38 1005.2
20260505214023 80 262 9.0 26.0 0.00 0.00 0.00 39 1005.0
20260505213523 81 251 7.0 26.0 0.00 0.00 0.00 38 1005.0
20260505213026 81 215 6.0 18.0 0.00 0.00 0.00 37 1005.0
20260505212526 81 224 8.0 18.0 0.00 0.00 0.00 37 1004.9
20260505212023 82 167 6.0 17.0 0.00 0.00 0.00 38 1004.9
20260505211523 82 243 5.0 19.0 0.00 0.00 0.00 37 1004.9
20260505211022 82 227 6.0 19.0 0.00 0.00 0.00 37 1004.8
20260505210522 82 276 5.0 20.0 0.00 0.00 0.00 37 1004.8
20260505210022 82 197 6.0 20.0 0.00 0.00 0.00 37 1005.0
20260505205522 81 169 8.0 23.0 0.00 0.00 0.00 38 1004.9
20260505205022 81 119 6.0 22.0 0.00 0.00 0.00 38 1004.8
20260505204522 81 241 7.0 17.0 0.00 0.00 0.00 39 1004.9
20260505204024 82 264 6.0 19.0 0.00 0.00 0.00 38 1004.8
20260505203521 81 199 6.0 26.0 0.00 0.00 0.00 39 1004.8
20260505203027 82 198 10.0 26.0 0.00 0.00 0.00 37 1005.1
20260505202520 82 194 8.0 16.0 0.00 0.00 0.00 38 1004.9
20260505202020 82 241 9.0 18.0 0.00 0.00 0.00 38 1005.0
20260505201520 83 255 7.0 26.0 0.00 0.00 0.00 38 1005.1
20260505201019 83 172 8.0 26.0 0.00 0.00 0.00 38 1004.8
20260505200523 84 237 9.0 21.0 0.00 0.00 0.00 36 1005.1
20260505200030 83 245 5.0 11.0 0.00 0.00 0.00 37 1005.0
20260505195519 84 137 7.0 20.0 0.00 0.00 0.00 36 1005.0
20260505195018 84 132 8.0 20.0 0.00 0.00 0.00 37 1004.8
20260505194517 83 262 5.0 15.0 0.00 0.00 0.00 38 1005.1
20260505194017 84 186 8.0 15.0 0.00 0.00 0.00 37 1005.1
20260505193517 83 158 7.0 25.0 0.00 0.00 0.00 37 1005.4
20260505193016 84 243 11.0 25.0 0.00 0.00 0.00 36 1005.0
20260505192519 84 283 9.0 15.0 0.00 0.00 0.00 35 1005.5
20260505192015 85 234 7.0 13.0 0.00 0.00 0.00 36 1005.3
20260505191515 84 226 4.0 13.0 0.00 0.00 0.00 38 1005.4
20260505191014 84 203 6.0 22.0 0.00 0.00 0.00 36 1005.5
20260505190515 83 136 6.0 22.0 0.00 0.00 0.00 35 1005.7
20260505190014 84 225 9.0 21.0 0.00 0.00 0.00 36 1005.7
20260505185513 83 251 10.0 21.0 0.00 0.00 0.00 37 1005.7
20260505185010 83 214 9.0 23.0 0.00 0.00 0.00 35 1005.8
20260505184511 83 214 5.0 23.0 0.00 0.00 0.00 37 1005.9
20260505184009 83 146 9.0 21.0 0.00 0.00 0.00 36 1006.0
20260505183509 83 168 6.0 28.0 0.00 0.00 0.00 38 1006.1
20260505183007 82 91 10.0 28.0 0.00 0.00 0.00 38 1006.0
20260505182506 82 164 6.0 17.0 0.00 0.00 0.00 40 1006.2
20260505182006 82 326 7.0 17.0 0.00 0.00 0.00 39 1005.8
20260505181506 83 253 7.0 19.0 0.00 0.00 0.00 40 1006.3
20260505181003 83 164 7.0 20.0 0.00 0.00 0.00 39 1006.4
20260505180505 82 227 8.0 20.0 0.00 0.00 0.00 40 1006.3
20260505180002 82 238 6.0 19.0 0.00 0.00 0.00 40 1006.6
20260505175501 82 287 9.0 19.0 0.00 0.00 0.00 40 1006.5
20260505175100 82 158 5.0 19.0 0.00 0.00 0.00 40 1006.7
20260505174601 81 180 8.0 18.0 0.00 0.00 0.00 39 1006.7
20260505174058 81 254 7.0 20.0 0.00 0.00 0.00 40 1006.6
20260505173600 81 232 7.0 16.0 0.00 0.00 0.00 42 1006.9
20260505173100 81 206 8.0 16.0 0.00 0.00 0.00 43 1006.8
20260505172556 81 71 5.0 12.0 0.00 0.00 0.00 42 1006.9
20260505172055 81 208 5.0 18.0 0.00 0.00 0.00 42 1007.1
20260505171554 80 166 4.0 21.0 0.00 0.00 0.00 43 1007.1
20260505171055 80 228 6.0 21.0 0.00 0.00 0.00 44 1007.3
20260505170551 81 212 3.0 11.0 0.00 0.00 0.00 44 1007.4
20260505170050 80 233 3.0 12.0 0.00 0.00 0.00 45 1007.5
20260505165550 79 166 5.0 12.0 0.00 0.00 0.00 45 1007.5
20260505165049 79 139 6.0 13.0 0.00 0.00 0.00 44 1007.7
20260505164559 80 234 3.0 13.0 0.00 0.00 0.00 45 1007.8
20260505164047 80 191 5.0 11.0 0.00 0.00 0.00 45 1007.9
20260505163547 79 185 3.0 13.0 0.00 0.00 0.00 46 1007.9
20260505163054 79 115 5.0 13.0 0.00 0.00 0.00 45 1008.0
20260505162547 79 193 2.0 10.0 0.00 0.00 0.00 48 1008.0
20260505162042 78 158 4.0 10.0 0.00 0.00 0.00 47 1008.2
20260505161544 78 173 3.0 12.0 0.00 0.00 0.00 47 1008.4
20260505161041 77 209 6.0 12.0 0.00 0.00 0.00 46 1008.6
20260505160540 78 172 4.0 10.0 0.00 0.00 0.00 48 1008.7
20260505153047 75 127 1.0 9.0 0.00 0.00 0.00 50 1009.0
20260505152531 75 176 2.0 9.0 0.00 0.00 0.00 51 1009.0
20260505152030 73 260 4.0 9.0 0.00 0.00 0.00 52 1009.1
20260505151529 73 153 4.0 9.0 0.00 0.00 0.00 51 1009.2
20260505151027 73 231 1.0 9.0 0.00 0.00 0.00 53 1009.2
20260505150527 72 136 3.0 11.0 0.00 0.00 0.00 54 1009.2